www.pogodaiklimat.ru

Погода и климат >> Архив погоды >> Италия >> Болонья


ПОГОДА в Болонье

  • Прогноз погоды в Болонье
  • Монитор погоды в Болонье

АРХИВ ПОГОДЫ в Болонье

Время (UTC), дата Ветер
(напр.,м/с)
 
Видим.   Явления Облачность Т
(С)
Тd
(С)
f
(%)
Тe
(С)
Тes
(С)
Комфортность P
(гПа)
Po
(гПа)
Тmin
(С)
Tmax
(С)
R
(мм)
R24
(мм)
S
(см)
01 15.03 0 н/о н/о +7.5 -2.9 48 1008.5 1002.5
02 15.03 0 н/о н/о +7.3 -0.3 58 1009.0 1003.0
03 15.03 0 н/о н/о +5.8 -1.9 58 1009.2 1003.2
04 15.03 0 н/о н/о +6.3 -3.7 49 1009.5 1003.5
05 15.03 0 н/о н/о +6.8 -3.0 50 1009.9 1003.9
06 15.03 0 н/о н/о +6.6 -1.4 57 1010.4 1004.4 +5.0 1
07 15.03 0 н/о н/о +9.9 +1.9 57 1010.9 1004.9
08 15.03 0 н/о н/о +10.7 -0.3 46 1010.9 1005.0
09 15.03 0 н/о н/о +13.6 +2.4 47 1011.6 1005.7
10 15.03 0 н/о н/о +14.8 +2.9 45 1011.6 1005.7
11 15.03 0 н/о н/о +17.7 +5.5 45 1011.1 1005.3
12 15.03 0 н/о н/о +18.7 +4.7 40 1010.3 1004.5
13 15.03 0 н/о н/о +20.0 +6.6 42 1009.7 1004.0
14 15.03 0 н/о н/о +20.6 +5.7 38 1009.9 1004.2
15 15.03 0 н/о н/о +20.6 +5.3 37 1009.4 1003.7
16 15.03 0 н/о н/о +20.0 +5.2 38 1009.5 1003.8
17 15.03 0 н/о н/о +18.4 +5.2 42 1010.2 1004.4
18 15.03 0 н/о н/о +16.3 +5.8 50 1010.5 1004.7 +21.4
19 15.03 0 н/о н/о +14.8 +6.0 56 1011.0 1005.1
20 15.03 0 н/о н/о +13.1 +5.2 59 1011.4 1005.5
21 15.03 0 н/о н/о +10.8 +3.7 61 1012.3 1006.4
22 15.03 0 н/о н/о +9.6 +2.6 62 1012.8 1006.8
23 15.03 0 н/о н/о +9.7 +2.9 63 1012.9 1006.9
00 16.03 0 н/о н/о +8.9 +3.7 70 1012.8 1006.8
01 16.03 0 н/о н/о +8.9 +3.2 67 1012.9 1006.9
02 16.03 0 н/о н/о +8.1 +3.1 71 1012.8 1006.8
03 16.03 0 н/о н/о +7.4 +3.8 78 1012.7 1006.7
04 16.03 0 н/о н/о +7.4 +4.3 81 1012.9 1006.9
05 16.03 0 н/о н/о +6.5 +3.6 82 1013.2 1007.2
06 16.03 0 н/о н/о +5.6 +2.7 82 1013.4 1007.3 +5.2 1
07 16.03 0 н/о н/о +7.7 +5.0 83 1014.0 1008.0
08 16.03 0 н/о н/о +10.5 +7.5 82 1014.9 1008.9
09 16.03 0 н/о н/о +15.1 +7.6 61 1014.8 1008.9
10 16.03 0 н/о н/о +17.6 +6.4 48 1014.9 1009.1
11 16.03 0 н/о н/о +19.6 +7.9 47 1014.9 1009.1
12 16.03 0 н/о н/о +20.1 +7.7 45 1014.4 1008.6
13 16.03 0 н/о н/о +21.4 +8.6 44 1013.5 1007.8
14 16.03 0 н/о н/о +22.2 +9.7 45 1013.2 1007.5
15 16.03 0 н/о н/о +22.3 +9.4 44 1012.8 1007.1
16 16.03 0 н/о н/о +22.5 +8.9 42 1012.7 1007.0
17 16.03 0 н/о н/о +21.2 +8.4 44 1012.8 1007.1
18 16.03 0 н/о н/о +19.5 +7.2 45 1013.3 1007.5 +23.2
19 16.03 0 н/о н/о +18.2 +6.6 47 1013.6 1007.8
20 16.03 0 н/о н/о +17.5 +7.2 51 1014.3 1008.5
21 16.03 0 н/о н/о +16.4 +7.3 55 1014.5 1008.7
22 16.03 0 н/о н/о +15.7 +7.4 58 1015.2 1009.3
23 16.03 0 н/о н/о +10.0 +5.9 76 1015.8 1009.8
00 17.03 0 н/о н/о +9.0 +6.1 82 1015.6 1009.6
01 17.03 0 н/о н/о +9.1 +6.2 82 1016.0 1010.0
02 17.03 0 н/о н/о +7.7 +5.0 83 1015.7 1009.7
03 17.03 0 н/о н/о +7.1 +4.4 83 1015.6 1009.6
04 17.03 0 н/о н/о +7.3 +4.6 83 1015.9 1009.9
05 17.03 0 н/о н/о +6.9 +4.2 83 1016.2 1010.1
06 17.03 0 н/о н/о +5.6 +2.7 82 1016.5 1010.4 +5.4 1
07 17.03 0 н/о н/о +6.4 +3.9 84 1016.8 1010.7
08 17.03 0 н/о н/о +9.7 +7.1 84 1016.8 1010.8
09 17.03 0 н/о н/о +11.7 +8.5 81 1016.6 1010.7
10 17.03 0 н/о н/о +14.7 +9.4 71 1016.2 1010.3
11 17.03 0 н/о н/о +16.8 +8.7 59 1015.4 1009.6
12 17.03 0 н/о н/о +18.0 +8.5 54 1014.4 1008.6
13 17.03 0 н/о н/о +18.8 +9.0 53 1013.0 1007.2
14 17.03 0 н/о н/о +19.8 +9.6 52 1012.3 1006.5
15 17.03 0 н/о н/о +18.9 +8.5 51 1012.0 1006.2
16 17.03 0 н/о н/о +18.8 +8.7 52 1011.4 1005.6
17 17.03 0 н/о н/о +17.7 +7.7 52 1011.3 1005.5
18 17.03 0 н/о н/о +15.4 +6.9 57 1011.5 1005.7 +20.6
19 17.03 0 н/о н/о +14.1 +6.4 60 1011.3 1005.4
20 17.03 0 н/о н/о +12.9 +6.2 64 1011.3 1005.4
21 17.03 0 н/о н/о +14.0 +5.3 56 1011.2 1005.3
22 17.03 0 н/о н/о +13.9 +5.2 56 1011.3 1005.4
23 17.03 0 н/о н/о +13.3 +4.6 56 1010.9 1005.0
00 18.03 0 н/о н/о +12.9 +4.8 58 1010.7 1004.8
01 18.03 0 н/о н/о +13.0 +5.1 59 1010.2 1004.3
02 18.03 0 н/о н/о +13.0 +4.9 58 1009.8 1003.9
03 18.03 0 н/о н/о +12.5 +4.6 59 1009.4 1003.5
04 18.03 0 н/о н/о +13.2 +5.5 60 1009.2 1003.3
05 18.03 0 н/о н/о +13.2 +6.2 62 1009.2 1003.3
06 18.03 0 н/о н/о +9.7 +6.7 82 1011.5 1005.5 +9.6 0.4 1
07 18.03 0 н/о н/о +8.8 +5.9 82 1012.3 1006.3
08 18.03 0 н/о н/о +9.3 +6.3 82 1012.6 1006.6
09 18.03 0 н/о н/о +11.9 +6.1 68 1012.9 1007.0
10 18.03 0 н/о н/о +12.6 +5.4 61 1013.5 1007.6
11 18.03 0 н/о н/о +12.1 +4.5 60 1014.7 1008.8
12 18.03 0 н/о н/о +12.6 +6.1 65 1015.2 1009.3 1
13 18.03 0 н/о н/о +11.3 +6.0 70 1015.3 1009.4
14 18.03 0 н/о н/о +10.5 +4.6 67 1015.8 1009.8
15 18.03 0 н/о н/о +9.8 +2.8 62 1016.5 1010.5
16 18.03 0 н/о н/о +9.4 +2.6 62 1016.9 1010.9
17 18.03 0 н/о н/о +9.0 +2.0 61 1017.9 1011.9
18 18.03 0 н/о н/о +8.3 +1.8 64 1018.5 1012.5 +13.7 1
19 18.03 0 н/о н/о +8.1 +2.1 66 1018.9 1012.9
20 18.03 0 н/о н/о +8.1 +2.3 67 1019.3 1013.3
21 18.03 0 н/о н/о +7.7 +4.1 78 1019.9 1013.8
22 18.03 0 н/о н/о +7.8 +4.0 77 1020.3 1014.2
23 18.03 0 н/о н/о +7.7 +4.2 78 1020.5 1014.4
00 19.03 0 н/о н/о +7.6 +3.8 77 1020.7 1014.6
01 19.03 0 н/о н/о +6.5 +2.3 75 1020.9 1014.8
02 19.03 0 н/о н/о +5.9 +2.3 78 1020.7 1014.6
03 19.03 0 н/о н/о +6.0 +2.4 78 1020.7 1014.6
04 19.03 0 н/о н/о +6.0 +2.6 79 1021.1 1015.0
05 19.03 0 н/о н/о +6.2 +2.8 79 1021.5 1015.4
06 19.03 0 н/о н/о +5.8 +2.0 77 1021.9 1015.8 +5.8 1
07 19.03 0 н/о н/о +6.4 +2.6 77 1022.6 1016.5
08 19.03 0 н/о н/о +7.0 +2.4 73 1023.2 1017.1
09 19.03 0 н/о н/о +7.8 +2.8 71 1023.5 1017.4
10 19.03 0 н/о н/о +8.9 +1.7 61 1023.7 1017.7
11 19.03 0 н/о н/о +10.4 +0.3 50 1023.7 1017.7
12 19.03 0 н/о н/о +10.7 +0.6 50 1023.6 1017.6
13 19.03 0 н/о н/о +10.7 +0.6 50 1023.4 1017.4
14 19.03 0 н/о н/о +10.9 +0.2 48 1023.3 1017.3
15 19.03 0 н/о н/о +10.8 +0.1 48 1023.6 1017.6
16 19.03 0 н/о н/о +11.0 +0.6 49 1023.5 1017.5
17 19.03 0 н/о н/о +10.6 +0.2 49 1024.0 1018.0
18 19.03 0 н/о н/о +9.4 -0.1 51 1024.8 1018.8 +11.6
19 19.03 0 н/о н/о +7.9 -0.7 55 1025.6 1019.5
20 19.03 0 н/о н/о +6.6 -1.4 57 1026.2 1020.1
21 19.03 0 н/о н/о +6.0 -1.3 59 1026.7 1020.6
22 19.03 0 н/о н/о +4.5 -1.6 65 1027.5 1021.3
23 19.03 0 н/о н/о +4.4 -1.1 67 1027.6 1021.4
00 20.03 0 н/о н/о +4.9 -1.6 63 1028.0 1021.8
01 20.03 0 н/о н/о +4.9 -1.4 64 1028.4 1022.2
02 20.03 0 н/о н/о +5.0 -1.1 65 1028.4 1022.2
03 20.03 0 н/о н/о +5.2 -1.4 62 1028.4 1022.2
04 20.03 0 н/о н/о +4.9 -1.4 64 1028.8 1022.6
05 20.03 0 н/о н/о +4.6 -1.5 65 1029.1 1022.9
06 20.03 0 н/о н/о +4.3 -1.8 64 1030.0 1023.8 +3.5 1
07 20.03 0 н/о н/о +5.5 -0.9 63 1030.6 1024.4
08 20.03 0 н/о н/о +7.3 +0.4 62 1030.9 1024.8
09 20.03 0 н/о н/о +10.2 +2.2 58 1031.1 1025.0
10 20.03 0 н/о н/о +12.2 +0.2 44 1030.9 1024.9
11 20.03 0 н/о н/о +12.1 -2.3 37 1031.0 1025.0
12 20.03 0 н/о н/о +12.8 -1.6 37 1030.6 1024.6
13 20.03 0 н/о н/о +13.1 -2.5 34 1030.0 1024.0
14 20.03 0 н/о н/о +13.4 -3.1 32 1029.7 1023.7
15 20.03 0 н/о н/о +12.8 -4.5 30 1029.8 1023.8
16 20.03 0 н/о н/о +12.2 -4.6 31 1029.9 1023.9
17 20.03 0 н/о н/о +11.7 -4.2 33 1030.2 1024.2
18 20.03 0 н/о н/о +10.6 -4.4 35 1030.7 1024.6 +13.9
19 20.03 0 н/о н/о +9.0 -3.4 41 1031.3 1025.2
20 20.03 0 н/о н/о +7.0 -3.7 46 1031.4 1025.3
21 20.03 0 н/о н/о +5.0 -3.9 53 1031.9 1025.7
22 20.03 0 н/о н/о +4.1 -4.2 55 1032.3 1026.1
23 20.03 0 н/о н/о +3.3 -4.7 56 1032.4 1026.2
00 21.03 0 н/о н/о +2.9 -4.7 57 1032.7 1026.5
01 21.03 0 н/о н/о +2.5 -4.6 59 1033.0 1026.8
02 21.03 0 н/о н/о +1.7 -5.1 61 1032.9 1026.6
03 21.03 0 н/о н/о +2.0 -4.6 62 1032.6 1026.3
04 21.03 0 н/о н/о +1.8 -4.4 63 1032.7 1026.4
05 21.03 0 н/о н/о +1.8 -4.2 64 1033.1 1026.8
06 21.03 0 н/о н/о +1.3 -4.0 68 1033.6 1027.3 +0.8 1
07 21.03 0 н/о н/о +4.2 -2.1 64 1034.1 1027.9
08 21.03 0 н/о н/о +7.2 -1.3 55 1034.1 1028.0
09 21.03 0 н/о н/о +8.8 -0.6 52 1034.4 1028.3
11 21.03 0 н/о н/о +12.1 +0.4 45 1033.8 1027.8
12 21.03 0 н/о н/о +12.9 +0.8 44 1033.2 1027.2
13 21.03 0 н/о н/о +14.1 +1.3 42 1032.2 1026.2
14 21.03 0 н/о н/о +14.8 +1.6 41 1031.6 1025.6
15 21.03 0 н/о н/о +15.5 +1.9 40 1030.9 1025.0
18 21.03 0 н/о н/о +11.9 -2.1 38 1030.6 1024.6 +15.8
19 21.03 0 н/о н/о +9.7 -1.8 45 1031.1 1025.0
21 21.03 0 н/о н/о +7.6 -1.2 54 1031.6 1025.5
22 21.03 0 н/о н/о +6.7 -1.3 57 1031.9 1025.8
23 21.03 0 н/о н/о +6.3 -1.2 59 1032.1 1025.9
00 22.03 0 н/о н/о +5.8 -1.5 59 1032.0 1025.8
01 22.03 0 н/о н/о +5.4 -1.8 60 1031.7 1025.5

 

Местоположение метеостанции Болонья (Италия): широта 44.53 долгота 11.28 высота над уровнем моря 51 м.

В архиве по умолчанию представлена погода в Болонье за последнюю неделю. Архивные данные за месяц целиком и за предыдущие месяцы, начиная с января 2011 года, Вы можете получить, выбрав интересующий диапазон дат из раскрывающегося списка и нажав кнопку "Ввод!".


*Определитесь, кто Вы:
робот инопланетянин человек

Внимание! Время в таблицах - всемирное. Для получения местного времени необходимо прибавить поправку, которая равна 1 ч.

Смотрите также архив погоды в соседних городах и на ближайших метеорологических станциях:

Погода в Болонье (Италия) (2 км)
Погода в Ферраре (Италия) (43 км)
Погода на Монте Симон (Италия) (59 км)
Погода в Пунта Марина (Италия) (81 км)
Погода во Флоренции (Италия) (81 км)
Погода в Флоренция аэропорту (Италия) (84 км)
Погода в Червии (Италия) (88 км)
Погода в Пизе (Италия) (119 км)
Погода в Римини (Италия) (120 км)
Погода в Ареццо (Италия) (126 км)

Пояснения к столбцам:

Ветер - указаны скорость ветра в м/с - средняя за 10 мин, порывы в срок и между сроками (в фигурных скобках) и направление, откуда дует ветер: С - северный, СВ - северо-восточный, В - восточный, ЮВ - юго-восточный, Ю - южный, ЮЗ - юго-западный, З - западный, СЗ - северо-западный.
Видимость - горизонтальная дальность видимости в метрах или километрах. При видимости от 1 до 10 км при отсутствии осадков обычно наблюдается дымка, при ухудшении видимости до 1 км и менее - туман. В сухую погоду видимость может ухудшаться дымом, пылью или мглою.
Явления - указаны атмосферные явления, наблюдавшиеся в срок или в последний час перед сроком; фигурными скобками обозначены явления, наблюдавшиеся между сроками (за 1-3 часа до срока); квадратными скобками обозначены град или гололедные отложения с указанием их диаметра в мм.
Облачность - указаны через наклонную черту общая и нижняя облачность в баллах и высота нижней границы облаков в метрах; квадратными скобками обозначены формы облаков: Ci - перистые, Cs - перисто-слоистые, Cc - перисто-кучевые, Ac - высококучевые, As - высокослоистые, Sc - слоисто-кучевые, Ns - слоисто-дождевые, Cu - кучевые, Cb - кучево-дождевые. Подробнее классификацию облаков см. в Атласе облаков (PDF).
T - Температура воздуха - температура, измеренная на высоте 2 м над землей.
Td - Температура точки росы - температура, при понижении до которой содержащийся в воздухе водяной пар достигнет насыщения.
f - Относительная влажность воздуха - влажноcть воздуха, измеренная на высоте 2 м над землей.
Te - Эффективная температура - температура, которую ощущает одетый по сезону человек в тени. Характеристика душности погоды. При расчете учитывается влияние влажности воздуха и скорости ветра на теплоощущения человека.
Tes - Эффективная температура на солнце - температура, которую ощущает человек, с поправкой на солнечный нагрев. Характеристика знойности погоды. Зависит от высоты солнца над горизонтом, облачности и скорости ветра. Ночью, в пасмурную погоду, а также при ветре 12 м/с и более поправка равна нулю.
P - Атмосферное давление - приведенное к уровню моря атмосферное давление.
Po - Атмосферное давление - измеренное на уровне метеостанции атмосферное давление.
Tmin - Минимальная температура - минимум температуры воздуха на высоте 2 м над землей.
Tmax - Максимальная температура - максимум температуры воздуха на высоте 2 м над землей.
R - Количество осадков - Количество выпавших осадков за период времени, мм. При наведении курсора мыши на число - период времени, за который выпало указанное количество осадков.
R24 - Количество осадков - Количество выпавших осадков за 24 часа, мм.
S - Снежный покров - Высота снежного покрова, см. При наведении курсора мыши на число - состояние снежного покрова и степень покрытия местности в баллах.